Precipitable_Water
1.07 1.07 1.14 1.14 1.14 1.11 1.13 1.16 1.19 1.27 1.34 1.43 1.43 1.44 1.46 1.48 1.48 1.50 1.54 1.54 1.58 1.58 1.58 1.59 1.61 1.64 1.66 1.65 1.63 1.61 1.59 1.58 1.60 1.57 1.53 1.50 1.53 1.53 1.55 1.54 1.50 1.50 1.49 1.47 1.49 1.49 1.46 1.42 1.40 1.42 1.48 1.44 1.46 1.49 1.48 1.48 1.47 1.44 1.41 1.37 1.31 1.35 1.29 1.21 1.08 1.07 1.24 1.40 1.36 1.34 1.42 1.42 1.33 1.40 1.34 1.36 1.38 1.43 1.46 1.47 1.48 1.45 1.43 1.43 1.43
1.20 1.14 1.13 1.14 1.11 1.12 1.14 1.17 1.19 1.21 1.21 1.28 1.32 1.35 1.38 1.43 1.50 1.52 1.49 1.52 1.56 1.55 1.55 1.57 1.60 1.62 1.62 1.63 1.64 1.64 1.61 1.57 1.57 1.55 1.47 1.43 1.42 1.47 1.45 1.43 1.42 1.41 1.42 1.40 1.46 1.51 1.51 1.45 1.41 1.41 1.44 1.41 1.44 1.45 1.48 1.48 1.47 1.44 1.42 1.37 1.31 1.29 1.37 1.23 1.17 1.11 1.08 1.29 1.32 1.43 1.39 1.45 1.28 1.40 1.32 1.31 1.34 1.40 1.38 1.40 1.46 1.47 1.44 1.46 1.45
1.42 1.33 1.25 1.18 1.15 1.17 1.19 1.19 1.21 1.19 1.17 1.18 1.22 1.27 1.30 1.36 1.46 1.49 1.51 1.54 1.59 1.57 1.56 1.56 1.58 1.60 1.59 1.59 1.60 1.60 1.59 1.55 1.55 1.51 1.46 1.41 1.38 1.39 1.41 1.38 1.35 1.34 1.33 1.35 1.39 1.45 1.42 1.39 1.38 1.41 1.43 1.36 1.39 1.43 1.47 1.46 1.47 1.43 1.40 1.39 1.32 1.32 1.34 1.33 1.22 1.11 1.09 1.13 1.25 1.24 1.31 1.38 1.33 1.33 1.39 1.40 1.40 1.41 1.37 1.39 1.40 1.41 1.44 1.42 1.40
1.51 1.44 1.35 1.28 1.25 1.22 1.18 1.19 1.20 1.19 1.15 1.15 1.16 1.22 1.27 1.31 1.39 1.43 1.48 1.55 1.55 1.60 1.61 1.60 1.58 1.58 1.57 1.57 1.57 1.56 1.54 1.51 1.49 1.47 1.43 1.39 1.35 1.33 1.35 1.35 1.33 1.32 1.32 1.34 1.38 1.40 1.39 1.37 1.38 1.41 1.41 1.33 1.33 1.36 1.41 1.43 1.41 1.41 1.38 1.38 1.35 1.33 1.36 1.35 1.32 1.22 1.17 1.08 1.18 1.21 1.29 1.27 1.32 1.39 1.42 1.42 1.39 1.38 1.39 1.38 1.41 1.36 1.35 1.37 1.36
1.61 1.55 1.47 1.39 1.34 1.26 1.20 1.19 1.17 1.18 1.18 1.17 1.14 1.18 1.23 1.26 1.31 1.34 1.39 1.42 1.48 1.52 1.55 1.59 1.56 1.54 1.50 1.51 1.52 1.52 1.51 1.47 1.41 1.39 1.39 1.37 1.34 1.31 1.30 1.30 1.29 1.28 1.29 1.30 1.32 1.32 1.32 1.30 1.34 1.38 1.38 1.31 1.32 1.32 1.35 1.32 1.34 1.32 1.28 1.30 1.29 1.33 1.34 1.34 1.32 1.30 1.21 1.13 1.16 1.25 1.31 1.30 1.33 1.34 1.39 1.30 1.30 1.32 1.35 1.30 1.28 1.28 1.27 1.28 1.27
1.81 1.70 1.62 1.52 1.46 1.40 1.34 1.27 1.21 1.19 1.20 1.21 1.20 1.21 1.21 1.22 1.24 1.27 1.30 1.30 1.35 1.40 1.42 1.47 1.48 1.47 1.47 1.47 1.47 1.47 1.48 1.44 1.37 1.33 1.32 1.32 1.31 1.29 1.28 1.26 1.24 1.24 1.23 1.24 1.25 1.25 1.22 1.21 1.23 1.25 1.24 1.20 1.21 1.26 1.29 1.27 1.27 1.23 1.20 1.21 1.23 1.26 1.26 1.28 1.30 1.26 1.22 1.18 1.18 1.17 1.25 1.22 1.22 1.24 1.33 1.34 1.26 1.19 1.19 1.23 1.25 1.25 1.19 1.14 1.14
2.03 1.95 1.85 1.74 1.66 1.61 1.58 1.53 1.45 1.32 1.28 1.29 1.31 1.30 1.27 1.24 1.20 1.17 1.20 1.20 1.21 1.23 1.28 1.32 1.38 1.41 1.42 1.43 1.40 1.40 1.40 1.37 1.33 1.30 1.29 1.29 1.27 1.24 1.22 1.21 1.20 1.19 1.19 1.19 1.20 1.20 1.20 1.19 1.19 1.19 1.16 1.15 1.11 1.11 1.14 1.16 1.16 1.13 1.13 1.11 1.13 1.12 1.12 1.14 1.18 1.17 1.16 1.14 1.16 1.19 1.17 1.24 1.24 1.11 1.26 1.34 1.31 1.27 1.17 1.12 1.02 1.12 1.19 1.16 1.07
2.13 2.13 2.08 2.01 1.92 1.87 1.86 1.84 1.78 1.69 1.57 1.48 1.43 1.40 1.36 1.32 1.28 1.25 1.23 1.18 1.17 1.18 1.20 1.22 1.28 1.36 1.39 1.39 1.38 1.38 1.35 1.31 1.29 1.29 1.29 1.28 1.25 1.22 1.21 1.17 1.15 1.13 1.12 1.12 1.13 1.13 1.14 1.16 1.16 1.17 1.16 1.15 1.14 1.13 1.12 1.07 1.09 1.04 1.08 1.08 1.09 1.11 1.11 1.14 1.17 1.17 1.15 1.14 1.11 1.10 1.15 1.12 1.13 1.18 1.21 1.19 1.11 1.10 1.19 1.11 0.97 0.97 1.02 1.13 1.14
2.13 2.13 2.14 2.13 2.12 2.13 2.13 2.11 2.07 1.98 1.81 1.59 1.43 1.40 1.43 1.42 1.38 1.32 1.28 1.26 1.26 1.25 1.25 1.25 1.27 1.30 1.35 1.37 1.36 1.36 1.32 1.28 1.27 1.26 1.25 1.25 1.26 1.22 1.21 1.19 1.16 1.13 1.11 1.10 1.10 1.09 1.07 1.06 1.07 1.09 1.11 1.11 1.11 1.11 1.10 1.12 1.08 1.00 1.02 1.07 1.05 1.05 1.07 1.10 1.13 1.13 1.12 1.10 1.07 1.12 1.08 1.04 1.02 0.99 0.95 0.94 0.91 0.89 0.98 1.05 0.98 0.99 1.04 0.99 1.01
2.09 2.14 2.12 2.09 2.15 2.19 2.20 2.20 2.18 2.14 2.04 1.89 1.77 1.61 1.49 1.50 1.52 1.45 1.37 1.31 1.27 1.27 1.27 1.28 1.29 1.29 1.30 1.32 1.32 1.31 1.29 1.29 1.29 1.28 1.28 1.25 1.24 1.23 1.23 1.21 1.19 1.16 1.14 1.13 1.13 1.14 1.13 1.11 1.11 1.11 1.12 1.12 1.11 1.10 1.09 1.08 1.10 1.08 1.03 1.03 1.03 1.01 0.99 0.97 0.96 0.98 0.99 0.96 0.95 0.95 0.91 0.89 0.90 0.93 0.90 0.90 0.95 0.98 0.94 0.95 0.88 0.90 0.94 0.91 0.94
2.06 2.08 2.07 2.07 2.12 2.17 2.20 2.20 2.19 2.16 2.12 2.04 1.94 1.89 1.85 1.75 1.70 1.63 1.52 1.42 1.35 1.31 1.27 1.20 1.17 1.21 1.27 1.29 1.26 1.26 1.27 1.28 1.30 1.31 1.30 1.29 1.27 1.24 1.21 1.19 1.21 1.20 1.18 1.16 1.14 1.15 1.18 1.20 1.20 1.21 1.22 1.21 1.19 1.17 1.15 1.14 1.12 1.09 1.07 1.07 1.08 1.04 0.96 0.92 0.90 0.92 0.90 0.86 0.87 0.87 0.85 0.83 0.82 0.85 0.84 0.85 0.89 0.90 0.92 0.96 0.96 0.96 0.90 0.84 0.74
1.92 1.96 1.96 2.00 2.05 2.12 2.12 2.13 2.15 2.15 2.16 2.10 2.02 1.97 1.97 2.01 1.98 1.94 1.72 1.57 1.48 1.42 1.33 1.27 1.23 1.20 1.18 1.21 1.24 1.27 1.26 1.28 1.29 1.30 1.31 1.31 1.32 1.30 1.28 1.24 1.22 1.20 1.18 1.17 1.16 1.16 1.17 1.20 1.23 1.26 1.26 1.25 1.25 1.23 1.22 1.21 1.19 1.18 1.16 1.14 1.12 1.14 1.14 1.05 0.96 0.92 0.91 0.88 0.87 0.87 0.87 0.85 0.86 0.88 0.88 0.90 0.92 0.98 1.02 1.04 1.02 1.00 0.96 0.92 0.90
1.88 1.93 1.97 2.02 2.03 2.08 2.11 2.11 2.15 2.16 2.17 2.15 2.11 2.04 1.98 2.04 2.04 2.00 1.90 1.81 1.69 1.56 1.47 1.40 1.34 1.31 1.24 1.19 1.19 1.26 1.28 1.32 1.33 1.33 1.33 1.34 1.35 1.36 1.33 1.30 1.27 1.23 1.22 1.19 1.17 1.16 1.16 1.16 1.16 1.20 1.21 1.24 1.26 1.27 1.25 1.22 1.24 1.25 1.26 1.26 1.25 1.25 1.24 1.26 1.28 1.22 1.17 1.09 1.02 0.98 0.98 0.98 0.94 0.95 1.03 1.06 1.14 1.04 1.05 1.04 1.06 1.07 1.06 1.00 0.98
1.82 1.85 1.89 1.88 1.91 1.97 2.00 2.02 2.06 2.13 2.15 2.13 2.12 2.07 2.02 2.06 2.12 2.12 2.07 1.99 1.87 1.79 1.71 1.58 1.50 1.41 1.34 1.28 1.25 1.26 1.28 1.37 1.41 1.39 1.39 1.39 1.40 1.39 1.36 1.33 1.31 1.29 1.27 1.25 1.22 1.20 1.19 1.18 1.17 1.16 1.21 1.24 1.26 1.26 1.27 1.27 1.27 1.28 1.28 1.28 1.28 1.31 1.35 1.37 1.37 1.37 1.38 1.31 1.23 1.13 1.16 1.20 1.10 1.12 1.19 1.25 1.17 1.10 1.09 1.06 1.12 1.10 1.07 1.04 1.12
1.70 1.71 1.71 1.77 1.83 1.86 1.86 1.88 1.91 1.98 2.06 2.07 2.06 2.07 2.08 2.13 2.15 2.11 2.07 2.02 1.96 1.90 1.85 1.76 1.68 1.60 1.52 1.45 1.35 1.32 1.36 1.43 1.51 1.59 1.58 1.52 1.47 1.42 1.38 1.37 1.36 1.36 1.37 1.39 1.37 1.34 1.33 1.31 1.28 1.23 1.23 1.24 1.27 1.30 1.31 1.32 1.32 1.29 1.25 1.23 1.26 1.28 1.31 1.33 1.36 1.38 1.38 1.37 1.34 1.30 1.30 1.33 1.31 1.29 1.30 1.32 1.28 1.26 1.27 1.23 1.24 1.22 1.21 1.25 1.22
1.62 1.64 1.61 1.65 1.70 1.73 1.74 1.78 1.81 1.85 1.90 1.96 2.04 2.08 2.12 2.16 2.11 2.09 2.06 2.04 2.04 2.02 1.97 1.93 1.84 1.76 1.75 1.72 1.64 1.53 1.52 1.54 1.59 1.67 1.74 1.70 1.62 1.55 1.49 1.45 1.43 1.43 1.44 1.47 1.49 1.49 1.48 1.44 1.38 1.33 1.29 1.28 1.30 1.36 1.41 1.43 1.38 1.32 1.28 1.29 1.30 1.33 1.34 1.40 1.45 1.47 1.45 1.43 1.41 1.38 1.37 1.38 1.37 1.35 1.35 1.34 1.33 1.36 1.39 1.42 1.40 1.32 1.23 1.12 1.02
1.50 1.53 1.54 1.56 1.58 1.64 1.70 1.67 1.68 1.73 1.82 1.88 1.87 1.97 2.05 2.10 2.13 2.14 2.04 2.01 2.01 2.00 1.98 1.96 1.94 1.87 1.85 1.87 1.88 1.87 1.88 1.95 1.96 2.04 2.00 1.87 1.79 1.71 1.63 1.57 1.54 1.51 1.50 1.54 1.55 1.55 1.54 1.53 1.50 1.45 1.39 1.33 1.35 1.40 1.43 1.43 1.35 1.29 1.25 1.23 1.24 1.25 1.23 1.32 1.40 1.43 1.44 1.43 1.42 1.41 1.39 1.37 1.36 1.35 1.35 1.36 1.36 1.40 1.39 1.29 1.21 1.31 1.19 1.05 1.03
1.26 1.28 1.33 1.39 1.43 1.48 1.60 1.65 1.68 1.68 1.69 1.70 1.76 1.84 1.93 2.02 2.07 2.14 2.09 2.05 2.03 2.06 2.07 2.03 2.01 1.99 1.96 1.97 2.01 2.05 2.12 2.10 2.12 2.11 2.12 2.04 1.95 1.86 1.80 1.72 1.64 1.59 1.56 1.57 1.58 1.58 1.58 1.58 1.58 1.55 1.49 1.46 1.47 1.47 1.49 1.47 1.38 1.35 1.32 1.29 1.27 1.25 1.26 1.36 1.43 1.45 1.47 1.44 1.40 1.38 1.37 1.36 1.36 1.37 1.37 1.38 1.40 1.44 1.35 1.20 1.30 1.37 1.22 1.17 1.07
1.11 1.13 1.15 1.19 1.22 1.23 1.26 1.35 1.47 1.53 1.54 1.60 1.69 1.75 1.84 1.91 1.94 1.96 1.98 2.00 1.98 2.01 2.01 1.97 1.94 1.96 1.98 1.99 2.09 2.15 2.09 2.11 2.10 2.13 2.18 2.18 2.13 2.06 1.99 1.90 1.81 1.76 1.70 1.67 1.69 1.68 1.69 1.70 1.68 1.65 1.61 1.59 1.57 1.55 1.54 1.52 1.46 1.43 1.40 1.36 1.28 1.25 1.30 1.41 1.40 1.36 1.37 1.38 1.38 1.39 1.37 1.39 1.41 1.41 1.42 1.45 1.48 1.50 1.49 1.44 1.46 1.41 1.28 1.25 1.24
1.09 1.10 1.10 1.09 1.09 1.09 1.09 1.12 1.20 1.26 1.30 1.38 1.50 1.62 1.77 1.83 1.84 1.83 1.82 1.82 1.80 1.83 1.88 1.90 1.88 1.91 1.99 2.05 2.05 2.06 2.05 2.05 2.07 2.12 2.16 2.17 2.17 2.15 2.09 1.98 1.88 1.87 1.88 1.86 1.82 1.84 1.84 1.83 1.83 1.79 1.74 1.69 1.66 1.66 1.65 1.65 1.60 1.57 1.54 1.44 1.36 1.30 1.47 1.48 1.47 1.47 1.44 1.43 1.41 1.42 1.40 1.44 1.46 1.47 1.48 1.50 1.54 1.58 1.58 1.56 1.54 1.51 1.41 1.37 1.37
1.00 1.00 1.02 1.02 1.02 1.00 1.00 0.97 0.97 1.04 1.09 1.11 1.19 1.31 1.42 1.47 1.52 1.57 1.61 1.66 1.71 1.75 1.79 1.81 1.78 1.80 1.86 1.92 1.98 2.02 2.02 2.01 2.04 2.02 2.08 2.16 2.13 2.14 2.10 2.04 2.00 1.97 1.94 1.92 1.91 1.89 1.92 1.94 1.94 1.92 1.88 1.84 1.79 1.76 1.75 1.74 1.73 1.70 1.66 1.58 1.57 1.59 1.61 1.52 1.53 1.59 1.57 1.55 1.52 1.50 1.48 1.48 1.47 1.50 1.50 1.52 1.54 1.59 1.62 1.62 1.60 1.59 1.52 1.42 1.37
0.82 0.86 0.87 0.88 0.91 0.94 0.96 0.96 0.92 0.89 0.93 0.97 0.95 0.97 1.07 1.16 1.21 1.25 1.29 1.31 1.36 1.42 1.50 1.58 1.64 1.69 1.74 1.79 1.82 1.82 1.92 1.96 2.01 2.04 2.07 2.11 2.06 2.07 2.06 2.06 2.08 2.04 1.98 1.96 1.95 1.94 1.97 2.01 2.05 2.08 2.07 2.02 1.96 1.90 1.86 1.85 1.85 1.83 1.82 1.82 1.80 1.76 1.70 1.67 1.65 1.66 1.67 1.65 1.62 1.56 1.53 1.52 1.52 1.51 1.51 1.53 1.56 1.61 1.65 1.66 1.65 1.63 1.60 1.55 1.48
0.76 0.75 0.76 0.77 0.79 0.82 0.84 0.87 0.89 0.90 0.87 0.88 0.90 0.89 0.91 0.92 0.94 0.98 1.01 1.03 1.05 1.08 1.15 1.20 1.24 1.28 1.35 1.42 1.50 1.56 1.62 1.71 1.79 1.87 1.91 1.95 1.99 2.00 2.03 2.05 2.07 2.07 2.00 1.95 1.96 1.98 2.03 2.04 2.08 2.10 2.09 2.09 2.09 2.07 2.03 1.99 1.97 1.96 1.97 1.94 1.92 1.90 1.86 1.80 1.76 1.72 1.71 1.70 1.68 1.61 1.59 1.60 1.60 1.58 1.58 1.57 1.62 1.66 1.65 1.66 1.66 1.65 1.63 1.63 1.64
0.68 0.68 0.69 0.71 0.72 0.74 0.77 0.78 0.79 0.81 0.82 0.81 0.81 0.83 0.85 0.85 0.86 0.86 0.88 0.88 0.87 0.87 0.90 0.95 0.98 1.01 1.05 1.09 1.14 1.21 1.29 1.37 1.47 1.55 1.63 1.71 1.79 1.84 1.89 1.93 1.97 1.99 2.00 1.98 2.01 2.03 2.03 2.02 2.01 2.00 2.00 2.02 2.03 2.05 2.06 2.05 2.03 2.03 2.02 2.01 2.01 2.00 1.98 1.94 1.91 1.87 1.81 1.75 1.70 1.68 1.66 1.68 1.69 1.67 1.67 1.71 1.70 1.70 1.69 1.68 1.67 1.67 1.64 1.63 1.66
0.62 0.60 0.61 0.64 0.66 0.70 0.74 0.77 0.77 0.77 0.76 0.75 0.70 0.70 0.73 0.76 0.75 0.77 0.77 0.77 0.79 0.78 0.80 0.82 0.80 0.80 0.82 0.85 0.91 0.98 1.06 1.11 1.16 1.24 1.32 1.41 1.49 1.60 1.71 1.80 1.85 1.89 1.87 1.91 1.93 1.96 1.98 2.00 2.01 2.01 2.01 2.02 2.02 2.03 2.03 2.04 2.03 2.02 2.03 2.02 2.01 1.99 1.97 1.94 1.92 1.90 1.84 1.80 1.78 1.77 1.77 1.83 1.87 1.88 1.91 1.90 1.88 1.86 1.80 1.76 1.75 1.70 1.68 1.69 1.68
0.62 0.60 0.59 0.59 0.60 0.63 0.65 0.70 0.75 0.79 0.80 0.79 0.75 0.73 0.68 0.67 0.65 0.67 0.68 0.69 0.70 0.69 0.70 0.71 0.70 0.69 0.68 0.71 0.73 0.79 0.85 0.90 0.96 1.05 1.12 1.18 1.24 1.33 1.44 1.54 1.61 1.68 1.75 1.78 1.81 1.84 1.87 1.89 1.92 1.94 1.97 1.99 2.00 1.99 2.00 2.03 2.05 2.05 2.06 2.06 2.03 2.00 1.96 1.93 1.90 1.86 1.82 1.84 1.84 1.83 1.86 1.91 1.93 1.96 1.97 1.96 1.89 1.84 1.88 1.84 1.80 1.71 1.70 1.65 1.56
0.62 0.62 0.60 0.59 0.59 0.60 0.60 0.63 0.66 0.71 0.75 0.79 0.79 0.78 0.76 0.72 0.69 0.66 0.65 0.63 0.63 0.63 0.63 0.61 0.59 0.59 0.58 0.61 0.66 0.71 0.74 0.77 0.81 0.86 0.93 0.99 1.05 1.13 1.20 1.27 1.37 1.45 1.50 1.54 1.59 1.64 1.71 1.77 1.82 1.85 1.88 1.90 1.92 1.94 1.95 1.99 2.00 2.01 2.03 2.07 2.08 2.06 2.04 2.00 1.96 1.92 1.89 1.89 1.88 1.90 1.92 1.95 1.98 1.94 1.89 1.87 1.82 1.85 1.92 1.86 1.79 1.74 1.76 1.76 1.66
0.62 0.61 0.62 0.61 0.60 0.59 0.58 0.61 0.62 0.64 0.69 0.72 0.72 0.74 0.75 0.74 0.70 0.68 0.67 0.66 0.63 0.61 0.60 0.58 0.55 0.54 0.52 0.54 0.57 0.60 0.63 0.67 0.71 0.73 0.77 0.82 0.86 0.93 0.99 1.05 1.11 1.18 1.26 1.35 1.42 1.48 1.52 1.59 1.66 1.72 1.76 1.78 1.82 1.84 1.85 1.87 1.89 1.90 1.93 1.97 2.00 2.04 2.06 2.08 2.08 2.05 2.02 2.02 1.99 2.00 1.99 1.99 1.94 1.94 1.95 1.92 1.91 1.93 1.98 1.93 1.85 1.79 1.79 1.76 1.63
0.61 0.60 0.61 0.60 0.59 0.61 0.59 0.59 0.59 0.60 0.64 0.70 0.73 0.75 0.73 0.71 0.70 0.71 0.76 0.77 0.73 0.67 0.64 0.62 0.61 0.60 0.58 0.55 0.53 0.52 0.55 0.55 0.62 0.69 0.71 0.73 0.76 0.79 0.83 0.87 0.93 0.99 1.06 1.13 1.20 1.29 1.36 1.38 1.39 1.44 1.48 1.51 1.55 1.58 1.61 1.63 1.65 1.70 1.73 1.75 1.80 1.90 1.96 1.97 1.95 1.98 2.02 2.01 1.95 1.94 1.92 1.93 1.91 1.94 1.92 1.88 1.89 1.93 2.00 1.96 1.95 1.88 1.84 1.82 1.69
0.53 0.55 0.57 0.58 0.59 0.59 0.57 0.57 0.59 0.60 0.63 0.64 0.68 0.72 0.80 0.78 0.77 0.72 0.71 0.75 0.75 0.75 0.73 0.67 0.67 0.65 0.61 0.63 0.64 0.58 0.56 0.61 0.67 0.67 0.66 0.67 0.69 0.71 0.74 0.77 0.81 0.85 0.90 0.95 0.98 0.99 1.02 1.06 1.10 1.14 1.17 1.20 1.24 1.29 1.34 1.38 1.43 1.47 1.54 1.61 1.65 1.69 1.74 1.81 1.86 1.87 1.91 1.92 1.94 1.92 1.90 1.89 1.86 1.87 1.86 1.83 1.83 1.87 1.94 1.93 1.90 1.95 1.85 1.77 1.71
0.48 0.50 0.52 0.53 0.57 0.58 0.56 0.56 0.57 0.59 0.61 0.63 0.64 0.64 0.66 0.72 0.74 0.73 0.71 0.70 0.71 0.71 0.72 0.72 0.72 0.70 0.67 0.65 0.70 0.71 0.69 0.67 0.66 0.65 0.65 0.66 0.66 0.66 0.65 0.65 0.67 0.69 0.73 0.75 0.75 0.75 0.76 0.79 0.85 0.92 0.97 1.02 1.04 1.06 1.11 1.15 1.19 1.24 1.29 1.37 1.45 1.51 1.58 1.63 1.68 1.74 1.77 1.81 1.86 1.88 1.89 1.87 1.85 1.86 1.83 1.82 1.81 1.81 1.84 1.89 1.90 1.89 1.87 1.84 1.76
0.45 0.47 0.49 0.50 0.53 0.55 0.55 0.56 0.56 0.55 0.56 0.60 0.61 0.60 0.59 0.57 0.61 0.69 0.69 0.68 0.68 0.68 0.69 0.71 0.71 0.71 0.71 0.71 0.70 0.69 0.69 0.68 0.66 0.65 0.64 0.64 0.65 0.65 0.65 0.63 0.62 0.61 0.61 0.61 0.57 0.58 0.62 0.63 0.65 0.69 0.74 0.77 0.82 0.89 0.94 0.98 1.02 1.06 1.10 1.13 1.20 1.30 1.36 1.40 1.48 1.54 1.59 1.65 1.68 1.69 1.72 1.76 1.80 1.81 1.82 1.83 1.83 1.81 1.79 1.77 1.78 1.79 1.82 1.86 1.84
0.45 0.47 0.48 0.48 0.49 0.51 0.52 0.53 0.54 0.56 0.56 0.56 0.56 0.57 0.55 0.54 0.51 0.52 0.60 0.66 0.67 0.66 0.66 0.68 0.70 0.71 0.72 0.73 0.74 0.70 0.67 0.68 0.67 0.66 0.65 0.64 0.64 0.64 0.64 0.62 0.61 0.60 0.58 0.52 0.47 0.46 0.48 0.50 0.52 0.56 0.58 0.59 0.64 0.68 0.73 0.79 0.84 0.89 0.93 0.96 1.00 1.07 1.15 1.23 1.31 1.33 1.37 1.41 1.45 1.51 1.60 1.67 1.74 1.76 1.76 1.77 1.77 1.74 1.75 1.73 1.74 1.76 1.77 1.75 1.77
0.45 0.47 0.46 0.46 0.46 0.47 0.49 0.51 0.53 0.54 0.56 0.57 0.57 0.57 0.58 0.58 0.57 0.57 0.55 0.55 0.56 0.61 0.66 0.67 0.67 0.69 0.71 0.73 0.74 0.70 0.68 0.67 0.67 0.66 0.66 0.65 0.64 0.64 0.62 0.61 0.60 0.59 0.55 0.50 0.48 0.45 0.46 0.44 0.44 0.45 0.47 0.49 0.51 0.52 0.54 0.58 0.64 0.69 0.75 0.81 0.87 0.93 0.98 1.04 1.07 1.12 1.18 1.23 1.27 1.33 1.42 1.51 1.59 1.62 1.65 1.72 1.79 1.82 1.80 1.76 1.73 1.70 1.69 1.72 1.72
0.44 0.46 0.48 0.48 0.47 0.47 0.49 0.51 0.53 0.54 0.56 0.56 0.57 0.56 0.57 0.59 0.60 0.58 0.56 0.55 0.54 0.54 0.54 0.61 0.67 0.68 0.68 0.70 0.70 0.69 0.67 0.66 0.66 0.65 0.65 0.65 0.64 0.64 0.62 0.57 0.52 0.53 0.53 0.52 0.50 0.47 0.45 0.45 0.45 0.46 0.46 0.45 0.46 0.47 0.46 0.48 0.50 0.52 0.56 0.60 0.67 0.74 0.81 0.86 0.90 0.94 0.97 1.03 1.10 1.16 1.22 1.27 1.35 1.43 1.50 1.53 1.59 1.66 1.70 1.70 1.67 1.68 1.67 1.70 1.73
0.44 0.44 0.46 0.47 0.48 0.49 0.50 0.52 0.54 0.55 0.54 0.56 0.58 0.58 0.59 0.59 0.58 0.58 0.59 0.60 0.59 0.58 0.58 0.60 0.62 0.66 0.67 0.68 0.69 0.68 0.66 0.65 0.65 0.65 0.65 0.66 0.66 0.64 0.56 0.53 0.51 0.51 0.50 0.51 0.50 0.50 0.49 0.48 0.47 0.46 0.47 0.47 0.48 0.47 0.47 0.46 0.47 0.47 0.49 0.51 0.52 0.56 0.61 0.66 0.73 0.78 0.83 0.87 0.91 0.97 1.03 1.10 1.17 1.20 1.24 1.30 1.39 1.50 1.60 1.63 1.68 1.72 1.68 1.61 1.66
0.46 0.45 0.45 0.46 0.46 0.47 0.48 0.51 0.54 0.56 0.55 0.58 0.57 0.57 0.59 0.59 0.59 0.59 0.59 0.58 0.59 0.59 0.58 0.59 0.61 0.62 0.65 0.67 0.69 0.69 0.67 0.65 0.65 0.65 0.67 0.67 0.67 0.65 0.60 0.57 0.54 0.53 0.52 0.51 0.51 0.51 0.49 0.50 0.50 0.49 0.49 0.48 0.48 0.48 0.48 0.47 0.48 0.48 0.49 0.50 0.50 0.50 0.51 0.54 0.57 0.61 0.65 0.68 0.74 0.80 0.84 0.89 0.94 0.99 1.04 1.07 1.14 1.23 1.37 1.52 1.61 1.65 1.68 1.64 1.61
0.48 0.46 0.47 0.48 0.47 0.46 0.46 0.48 0.51 0.52 0.53 0.55 0.54 0.55 0.56 0.56 0.57 0.57 0.56 0.56 0.57 0.56 0.56 0.57 0.58 0.56 0.54 0.57 0.65 0.65 0.64 0.63 0.63 0.63 0.65 0.65 0.64 0.61 0.60 0.58 0.57 0.54 0.52 0.53 0.53 0.52 0.51 0.51 0.51 0.50 0.49 0.50 0.49 0.49 0.48 0.48 0.49 0.49 0.48 0.48 0.49 0.49 0.49 0.50 0.51 0.52 0.53 0.55 0.58 0.62 0.67 0.71 0.77 0.82 0.87 0.90 0.95 1.03 1.10 1.16 1.23 1.34 1.48 1.54 1.53
0.50 0.48 0.49 0.49 0.48 0.46 0.45 0.46 0.48 0.48 0.49 0.51 0.51 0.51 0.51 0.51 0.52 0.54 0.55 0.54 0.54 0.54 0.54 0.54 0.54 0.53 0.55 0.58 0.59 0.62 0.59 0.54 0.53 0.53 0.56 0.58 0.60 0.60 0.59 0.57 0.56 0.55 0.55 0.55 0.55 0.54 0.52 0.51 0.51 0.51 0.51 0.50 0.49 0.49 0.49 0.48 0.49 0.49 0.49 0.49 0.48 0.49 0.48 0.48 0.47 0.48 0.48 0.49 0.50 0.54 0.56 0.59 0.63 0.67 0.73 0.75 0.78 0.84 0.90 0.97 1.05 1.10 1.16 1.27 1.38
0.53 0.49 0.49 0.48 0.47 0.46 0.46 0.46 0.46 0.45 0.45 0.45 0.46 0.48 0.48 0.49 0.50 0.51 0.52 0.52 0.51 0.51 0.51 0.50 0.51 0.52 0.56 0.57 0.57 0.57 0.52 0.51 0.51 0.53 0.54 0.55 0.56 0.57 0.57 0.56 0.55 0.54 0.53 0.53 0.54 0.53 0.53 0.52 0.52 0.51 0.50 0.50 0.50 0.49 0.49 0.49 0.49 0.49 0.50 0.49 0.48 0.48 0.49 0.49 0.48 0.48 0.47 0.48 0.48 0.48 0.49 0.51 0.53 0.57 0.60 0.64 0.67 0.71 0.75 0.80 0.87 0.95 1.00 1.04 1.10
0.56 0.51 0.50 0.48 0.48 0.46 0.45 0.45 0.43 0.43 0.43 0.42 0.43 0.43 0.44 0.47 0.50 0.51 0.50 0.49 0.49 0.49 0.49 0.50 0.50 0.53 0.55 0.56 0.58 0.58 0.55 0.52 0.53 0.54 0.54 0.55 0.57 0.57 0.56 0.56 0.55 0.54 0.55 0.54 0.54 0.54 0.53 0.52 0.52 0.52 0.51 0.51 0.51 0.50 0.50 0.50 0.50 0.49 0.49 0.49 0.49 0.49 0.49 0.50 0.50 0.50 0.50 0.49 0.48 0.47 0.47 0.47 0.49 0.49 0.50 0.54 0.60 0.63 0.68 0.72 0.76 0.82 0.87 0.92 0.97
0.59 0.54 0.51 0.49 0.48 0.46 0.44 0.43 0.43 0.42 0.42 0.43 0.44 0.45 0.47 0.49 0.50 0.49 0.49 0.49 0.48 0.48 0.48 0.49 0.51 0.52 0.54 0.54 0.56 0.57 0.55 0.54 0.55 0.55 0.56 0.56 0.56 0.56 0.57 0.57 0.57 0.57 0.56 0.55 0.55 0.54 0.54 0.53 0.53 0.52 0.51 0.51 0.51 0.51 0.51 0.50 0.51 0.50 0.50 0.49 0.49 0.49 0.49 0.49 0.51 0.51 0.51 0.50 0.49 0.48 0.47 0.47 0.47 0.47 0.48 0.50 0.52 0.56 0.59 0.62 0.67 0.72 0.76 0.81 0.85
0.61 0.57 0.53 0.51 0.48 0.45 0.43 0.42 0.42 0.41 0.42 0.43 0.45 0.49 0.51 0.50 0.49 0.49 0.48 0.47 0.47 0.48 0.49 0.49 0.50 0.53 0.53 0.56 0.55 0.53 0.52 0.53 0.53 0.53 0.54 0.55 0.56 0.56 0.56 0.56 0.56 0.57 0.57 0.58 0.58 0.57 0.55 0.54 0.53 0.52 0.52 0.52 0.52 0.51 0.51 0.51 0.52 0.52 0.52 0.51 0.51 0.50 0.50 0.50 0.51 0.51 0.51 0.50 0.49 0.49 0.48 0.47 0.47 0.46 0.46 0.46 0.47 0.50 0.52 0.55 0.58 0.62 0.67 0.73 0.77
0.60 0.56 0.53 0.51 0.48 0.46 0.45 0.44 0.43 0.43 0.43 0.46 0.48 0.49 0.49 0.49 0.49 0.48 0.47 0.46 0.46 0.48 0.48 0.49 0.50 0.50 0.50 0.52 0.53 0.52 0.51 0.52 0.51 0.52 0.52 0.53 0.54 0.54 0.55 0.56 0.56 0.56 0.56 0.56 0.57 0.57 0.55 0.54 0.53 0.53 0.54 0.54 0.54 0.54 0.54 0.55 0.55 0.54 0.53 0.53 0.52 0.52 0.52 0.52 0.52 0.51 0.51 0.49 0.48 0.48 0.48 0.48 0.47 0.46 0.45 0.46 0.46 0.45 0.46 0.49 0.53 0.56 0.60 0.64 0.69
0.57 0.54 0.52 0.49 0.47 0.46 0.46 0.47 0.48 0.48 0.49 0.48 0.46 0.46 0.46 0.46 0.46 0.45 0.46 0.46 0.45 0.46 0.47 0.48 0.48 0.47 0.48 0.49 0.50 0.49 0.50 0.50 0.51 0.51 0.51 0.52 0.52 0.53 0.54 0.54 0.55 0.54 0.54 0.54 0.55 0.55 0.54 0.53 0.53 0.52 0.52 0.53 0.54 0.54 0.54 0.55 0.56 0.56 0.56 0.55 0.54 0.52 0.52 0.53 0.54 0.54 0.53 0.51 0.49 0.48 0.48 0.48 0.47 0.47 0.46 0.46 0.46 0.46 0.45 0.46 0.49 0.51 0.54 0.58 0.62
0.55 0.53 0.52 0.52 0.51 0.50 0.48 0.49 0.50 0.49 0.48 0.46 0.45 0.44 0.45 0.45 0.44 0.44 0.44 0.44 0.44 0.43 0.44 0.45 0.45 0.46 0.47 0.47 0.48 0.48 0.49 0.50 0.50 0.51 0.52 0.52 0.52 0.52 0.53 0.53 0.53 0.53 0.52 0.52 0.53 0.52 0.52 0.52 0.51 0.50 0.50 0.50 0.51 0.52 0.53 0.54 0.55 0.56 0.56 0.56 0.55 0.55 0.56 0.57 0.57 0.56 0.55 0.54 0.52 0.50 0.48 0.47 0.47 0.47 0.48 0.47 0.47 0.48 0.47 0.47 0.48 0.49 0.51 0.54 0.59
0.56 0.55 0.55 0.54 0.52 0.51 0.51 0.49 0.48 0.47 0.45 0.45 0.44 0.44 0.43 0.43 0.43 0.43 0.43 0.43 0.43 0.43 0.44 0.44 0.45 0.45 0.46 0.47 0.47 0.48 0.49 0.49 0.49 0.49 0.50 0.50 0.51 0.51 0.51 0.51 0.51 0.51 0.51 0.51 0.51 0.50 0.50 0.49 0.49 0.49 0.49 0.49 0.50 0.50 0.51 0.52 0.53 0.53 0.54 0.55 0.55 0.55 0.56 0.57 0.57 0.57 0.56 0.56 0.55 0.52 0.49 0.47 0.46 0.46 0.48 0.50 0.50 0.50 0.50 0.49 0.49 0.49 0.50 0.53 0.56
0.55 0.54 0.54 0.53 0.52 0.51 0.49 0.48 0.46 0.45 0.44 0.44 0.43 0.43 0.42 0.42 0.42 0.42 0.42 0.43 0.43 0.43 0.43 0.44 0.43 0.44 0.44 0.45 0.46 0.47 0.47 0.46 0.46 0.46 0.46 0.47 0.47 0.48 0.48 0.48 0.47 0.47 0.47 0.47 0.47 0.46 0.46 0.46 0.46 0.46 0.46 0.47 0.47 0.47 0.48 0.49 0.50 0.50 0.51 0.52 0.53 0.54 0.55 0.55 0.54 0.54 0.55 0.55 0.55 0.54 0.52 0.51 0.49 0.48 0.49 0.51 0.52 0.53 0.51 0.50 0.51 0.51 0.52 0.54 0.57
0.54 0.53 0.52 0.52 0.51 0.50 0.48 0.46 0.45 0.43 0.42 0.41 0.40 0.41 0.41 0.42 0.43 0.42 0.42 0.41 0.41 0.41 0.41 0.41 0.41 0.42 0.43 0.43 0.43 0.43 0.43 0.43 0.43 0.43 0.43 0.43 0.44 0.45 0.45 0.45 0.45 0.45 0.45 0.44 0.44 0.43 0.43 0.43 0.44 0.44 0.44 0.45 0.46 0.46 0.47 0.47 0.48 0.48 0.48 0.49 0.49 0.50 0.50 0.51 0.52 0.53 0.54 0.54 0.54 0.54 0.54 0.53 0.51 0.51 0.52 0.53 0.55 0.56 0.55 0.55 0.54 0.54 0.54 0.56 0.57
0.51 0.51 0.51 0.51 0.50 0.49 0.48 0.46 0.44 0.43 0.42 0.41 0.41 0.42 0.43 0.42 0.40 0.39 0.38 0.38 0.39 0.39 0.39 0.40 0.40 0.40 0.39 0.39 0.40 0.40 0.40 0.40 0.40 0.40 0.41 0.43 0.43 0.42 0.42 0.43 0.43 0.43 0.42 0.41 0.42 0.42 0.42 0.43 0.43 0.43 0.43 0.44 0.45 0.45 0.45 0.46 0.46 0.46 0.47 0.48 0.49 0.49 0.50 0.51 0.52 0.53 0.53 0.53 0.53 0.53 0.53 0.53 0.54 0.54 0.55 0.56 0.56 0.57 0.56 0.56 0.57 0.57 0.57 0.56 0.57
0.49 0.49 0.48 0.48 0.48 0.47 0.47 0.45 0.44 0.43 0.42 0.42 0.43 0.42 0.41 0.40 0.38 0.37 0.36 0.36 0.36 0.37 0.37 0.37 0.36 0.35 0.35 0.36 0.37 0.38 0.38 0.38 0.39 0.40 0.40 0.40 0.40 0.41 0.41 0.40 0.39 0.39 0.39 0.41 0.41 0.42 0.42 0.43 0.43 0.44 0.44 0.44 0.43 0.43 0.43 0.43 0.44 0.46 0.48 0.49 0.50 0.51 0.52 0.52 0.52 0.53 0.54 0.54 0.53 0.52 0.52 0.53 0.54 0.55 0.56 0.57 0.58 0.58 0.58 0.59 0.59 0.59 0.59 0.59 0.60
Wind_Speed
17 17 17 17 17 17 17 17 17 16 16 16 15 14 14 13 13 12 12 11 11 11 10 10 10 10 10 10 9 9 9 8 8 8 7 7 7 7 6 6 6 6 6 6 6 7 7 7 7 7 7 8 8 8 8 8 8 9 9 10 10 10 10 10 10 11 11 11 11 11 11 11 12 12 12 13 13 13 14 14 14 14 15 15 16
17 17 17 17 18 18 18 18 17 17 17 17 16 15 15 14 13 13 13 12 12 11 11 11 11 11 11 11 10 10 10 9 9 8 8 8 8 7 7 7 7 7 6 7 7 6 7 7 7 7 7 8 8 8 8 8 9 9 9 10 10 10 10 10 10 11 11 11 12 12 12 11 12 12 12 13 13 13 13 14 14 14 14 15 15
17 17 17 17 18 18 18 18 18 18 18 18 17 17 16 15 15 14 14 13 13 12 12 12 12 12 12 11 11 11 11 10 9 9 9 9 9 8 8 8 8 7 7 7 7 7 7 7 7 7 7 8 8 8 8 8 9 9 9 9 10 10 10 10 10 10 11 12 12 12 12 12 12 12 12 13 13 13 13 13 14 14 15 15 15
18 18 18 18 18 18 18 19 19 19 19 18 18 18 17 17 16 15 15 14 14 14 13 13 13 13 13 12 12 12 11 11 11 10 10 10 10 10 9 9 9 9 8 8 8 7 7 7 7 7 7 8 8 8 8 8 9 9 9 9 10 10 10 10 11 11 11 11 12 12 12 12 12 12 12 12 13 13 13 14 14 15 15 15 15
19 19 19 19 19 19 19 19 19 20 20 19 19 19 19 18 17 17 16 16 16 15 15 14 14 14 14 14 13 13 13 12 12 12 11 11 11 11 11 10 10 10 10 9 9 9 8 8 8 8 8 8 8 8 8 8 8 9 9 9 9 10 10 10 11 11 11 11 11 11 11 11 11 11 11 12 12 12 13 13 14 14 15 15 15
20 20 21 20 20 20 20 20 20 20 20 20 20 20 20 20 19 19 18 18 17 17 16 16 16 15 15 15 14 14 14 13 13 13 12 12 12 12 12 12 11 11 11 11 10 10 10 9 9 9 9 9 9 9 9 9 9 9 9 9 9 9 9 10 10 10 11 11 11 11 11 11 11 11 11 11 12 13 13 14 14 14 14 15 15
20 21 21 21 21 21 21 21 21 20 20 20 20 20 20 21 21 20 20 20 19 19 18 18 17 17 16 16 15 15 15 14 14 13 13 13 13 13 13 12 12 12 12 12 12 11 11 11 10 10 10 9 9 9 9 9 9 9 9 9 10 10 10 10 10 10 10 10 11 11 11 11 12 12 12 12 13 13 14 14 14 14 15 15 15
21 21 21 21 21 21 22 21 21 21 20 20 20 20 20 21 21 21 21 21 20 20 20 19 19 18 18 17 17 16 16 16 15 15 14 14 13 13 13 13 13 13 13 13 13 12 12 12 12 11 11 11 10 10 10 10 10 10 10 10 10 11 10 10 11 11 11 11 11 12 12 12 13 13 13 13 14 14 14 14 15 15 16 16 16
21 22 22 21 21 21 23 22 22 21 21 21 21 21 21 21 21 21 21 21 21 21 21 20 20 20 19 19 18 18 18 17 17 16 16 15 15 14 14 14 14 14 13 13 13 13 13 13 13 13 13 12 12 12 12 12 12 12 11 11 11 12 12 12 12 12 12 12 13 13 13 13 14 14 14 14 15 15 14 15 15 16 16 16 16
21 20 21 22 22 22 23 23 22 22 22 22 23 23 22 22 21 21 21 21 21 21 21 21 21 21 21 20 20 19 19 19 18 18 18 17 17 16 16 16 16 15 15 15 14 14 14 14 14 14 15 14 14 14 14 14 14 14 14 13 13 13 13 14 14 14 14 14 14 14 14 15 15 15 15 15 16 16 16 16 17 17 17 17 17
18 17 18 20 22 22 22 23 23 23 23 23 24 24 24 23 23 23 22 22 22 21 21 22 22 22 22 21 21 21 21 20 20 20 20 20 19 18 18 18 17 17 17 17 17 16 16 16 15 16 16 15 15 15 16 16 16 16 16 15 15 15 15 15 16 16 15 16 16 16 16 16 16 16 16 17 17 17 17 17 17 17 17 17 17
15 15 15 17 18 19 20 21 22 23 24 24 24 24 24 24 24 24 24 23 22 22 22 22 22 22 22 22 22 22 22 22 22 22 21 21 21 21 20 20 19 19 19 19 19 18 18 18 17 17 17 17 17 16 16 17 17 17 17 17 17 17 17 17 17 17 17 17 17 17 17 17 17 17 17 18 17 17 17 17 17 17 17 18 18
13 13 13 13 14 15 16 16 17 19 21 22 24 24 23 23 24 24 24 24 24 23 23 23 22 22 22 22 22 22 22 22 23 23 23 22 22 22 21 21 21 21 20 20 20 20 20 19 19 19 19 18 18 18 18 18 18 18 18 18 18 18 18 18 19 19 19 19 19 19 18 18 18 18 18 18 18 18 18 19 19 18 19 19 19
11 11 11 11 12 12 12 12 12 13 15 18 20 22 22 22 22 23 23 23 23 24 24 24 24 23 23 23 22 23 23 22 22 23 23 23 23 23 22 22 22 22 22 21 21 21 21 21 20 20 20 20 19 19 19 19 19 19 19 19 19 19 19 19 19 19 20 20 20 20 20 20 20 20 19 19 19 20 20 20 20 20 20 21 21
10 10 9 9 9 10 10 11 11 11 12 14 16 18 19 19 19 20 21 22 22 23 24 24 24 24 24 24 24 24 24 24 23 22 22 23 23 23 22 22 22 22 22 22 22 22 22 21 21 21 21 21 20 20 20 20 20 20 20 20 20 20 20 20 20 20 20 20 21 21 21 21 22 22 21 21 21 21 21 21 21 21 21 22 22
10 10 9 9 8 8 8 8 9 9 10 11 12 14 15 16 16 18 19 20 22 23 23 24 24 24 24 24 24 25 25 25 24 24 23 23 23 22 22 22 22 22 23 23 23 22 22 22 22 22 22 22 22 22 22 21 21 21 21 21 21 21 22 22 22 22 22 22 22 23 23 23 23 23 23 23 22 22 22 22 22 22 22 23 23
11 11 10 10 10 9 8 8 8 8 9 9 10 11 12 13 14 15 16 17 19 20 22 23 23 23 23 24 24 24 24 24 24 25 24 23 23 23 23 23 23 23 23 23 23 22 22 22 23 23 23 23 23 23 23 23 23 23 23 23 23 23 24 24 24 25 25 25 25 25 25 25 25 25 25 25 24 23 23 23 23 23 23 23 23
12 12 12 11 11 11 11 10 10 10 10 10 10 10 11 11 12 12 13 14 15 17 19 20 21 22 22 22 23 23 22 21 22 23 24 24 24 24 24 24 24 24 24 24 23 23 23 23 23 23 23 23 24 24 24 24 24 24 24 25 25 25 25 25 25 26 26 26 26 26 26 26 26 26 26 26 26 24 24 25 24 24 24 24 24
12 12 12 12 12 12 12 12 12 11 11 11 11 11 11 11 11 11 11 12 13 14 16 17 18 19 20 21 21 22 22 21 21 22 23 23 24 24 25 25 25 25 25 25 25 24 24 24 24 24 24 24 24 25 24 25 25 25 26 26 26 27 27 27 26 26 26 26 26 26 26 26 26 26 26 27 27 26 25 26 25 25 25 25 25
13 13 13 13 12 12 12 12 12 12 12 12 12 12 12 12 12 12 12 12 12 12 13 15 16 17 18 19 20 21 21 22 22 22 22 23 23 24 25 25 25 26 26 26 26 26 25 25 25 25 25 25 25 25 26 26 26 26 27 27 27 28 28 27 27 27 27 27 27 27 26 26 27 27 27 27 27 27 27 27 26 26 26 26 26
14 13 13 13 13 13 13 13 13 13 13 12 13 13 13 13 13 13 13 12 12 12 12 13 14 15 16 17 18 19 20 20 21 21 22 22 22 23 24 25 25 26 26 26 26 27 27 27 26 26 26 26 26 27 27 27 27 27 27 28 28 28 28 28 28 28 28 28 28 27 27 27 27 27 28 27 27 28 28 28 27 27 27 27 27
15 15 14 14 14 14 14 14 14 14 14 14 13 13 14 14 14 14 14 14 13 13 13 13 13 13 14 14 15 17 17 18 19 19 20 21 22 23 24 24 25 25 26 26 26 27 27 28 28 28 28 28 28 28 29 29 28 28 28 28 29 29 29 28 28 28 28 28 28 28 28 28 28 28 28 28 28 28 28 29 29 29 29 29 29
17 17 17 16 16 17 17 17 16 16 16 16 16 15 15 15 16 16 16 16 16 16 16 16 15 15 15 15 15 16 16 17 17 18 19 20 21 22 23 24 24 25 25 26 26 27 28 28 29 29 29 29 29 29 29 29 29 29 29 29 29 29 29 28 29 29 29 28 28 28 28 28 28 29 29 29 29 29 29 30 30 30 30 30 30
19 19 19 19 19 19 19 19 19 19 19 18 18 18 18 18 18 18 18 18 18 18 18 18 18 18 19 19 18 18 18 18 18 18 18 19 20 21 22 23 24 24 25 26 26 27 27 28 28 29 29 30 30 30 29 29 30 30 30 30 30 30 29 29 29 29 29 29 29 29 29 29 30 30 30 30 30 30 31 31 31 31 31 31 31
22 21 21 21 21 21 21 21 21 21 21 21 21 21 21 20 20 20 20 20 20 20 20 20 21 21 21 21 21 21 21 20 20 20 20 20 20 21 21 22 22 23 24 25 25 26 26 27 28 28 29 29 29 29 30 30 30 31 31 31 31 31 30 31 30 30 30 30 30 30 30 31 31 31 31 31 32 32 32 32 32 32 32 32 32
24 24 24 24 24 24 24 23 23 22 22 22 22 22 22 22 22 22 22 22 22 22 22 22 22 23 23 23 23 23 23 22 22 22 22 22 21 21 22 22 22 22 23 24 24 25 26 26 26 27 27 27 28 28 28 29 30 30 31 31 31 31 31 31 31 31 31 31 31 31 31 31 31 32 32 32 32 32 32 32 32 32 32 33 33
26 26 26 26 26 26 26 25 25 25 24 24 24 24 23 23 23 23 23 24 24 24 24 24 24 24 24 25 25 25 25 24 24 24 24 24 23 23 23 23 22 23 23 23 24 24 25 25 25 25 26 26 26 26 27 27 28 28 29 29 29 29 30 30 31 31 31 31 31 31 31 31 31 31 31 32 32 32 32 33 33 32 32 33 33
27 27 27 27 27 27 27 27 27 27 26 26 26 25 25 25 25 25 25 25 25 25 25 25 25 25 26 26 26 26 26 26 26 26 26 26 25 25 24 24 24 24 24 24 24 24 24 24 24 25 25 25 25 26 26 26 27 27 27 28 28 28 28 29 29 30 31 31 31 32 32 32 32 31 31 31 31 31 31 32 32 32 32 32 32
28 28 28 28 28 28 28 28 28 28 28 28 27 27 27 26 26 26 26 26 26 26 27 27 27 27 27 27 27 27 27 27 27 27 28 28 27 27 27 26 26 26 26 26 26 25 25 24 24 25 25 25 26 26 27 27 27 27 28 28 28 28 28 28 28 29 29 30 31 31 31 32 32 31 31 31 31 31 31 31 31 31 31 31 31
28 28 28 28 28 28 28 29 29 29 29 29 29 29 28 28 28 28 27 27 27 27 27 28 28 28 28 28 27 27 27 28 28 28 28 29 29 29 29 29 29 29 29 29 28 27 27 26 26 26 26 27 27 27 27 28 28 28 29 29 29 28 28 28 28 29 29 30 30 30 31 31 31 31 31 31 31 31 31 31 31 31 31 31 31
28 28 28 28 28 28 28 28 29 29 29 29 29 30 30 30 29 29 29 29 29 29 29 29 28 28 28 28 28 28 28 29 29 30 29 29 29 30 30 30 31 31 31 31 30 30 30 29 29 29 29 29 29 29 29 29 29 29 30 30 29 29 29 29 29 30 30 30 30 30 30 30 31 31 31 32 32 32 32 32 32 32 32 32 31
28 28 28 28 28 28 28 28 28 28 29 29 30 30 30 30 31 30 30 30 30 30 30 29 29 29 29 29 29 29 29 29 30 30 30 30 30 30 30 31 31 31 32 32 32 32 32 32 32 32 32 32 32 32 32 32 31 32 32 31 31 31 30 31 31 31 31 31 31 31 31 31 31 32 32 32 33 33 33 33 32 32 33 32 32
28 28 28 28 28 28 28 28 28 28 29 29 29 30 30 30 31 31 31 31 31 31 31 30 30 30 30 30 30 29 30 30 30 30 30 31 31 31 31 31 31 31 32 32 32 32 33 33 34 34 35 35 35 35 35 35 35 34 34 34 34 34 34 34 34 34 33 33 34 34 34 34 34 34 34 34 34 34 34 34 34 34 34 33 33
28 28 28 28 28 28 28 28 28 28 29 29 29 30 30 30 31 31 31 31 32 32 32 32 31 31 31 31 31 31 31 31 31 31 31 31 31 31 32 32 32 32 32 32 32 32 33 33 34 34 35 35 36 36 36 37 37 37 37 37 37 37 37 37 37 37 36 36 36 36 36 36 36 37 37 36 36 35 35 35 36 36 35 35 34
28 28 28 28 28 29 29 29 29 29 29 29 30 30 30 30 31 31 31 31 32 32 33 33 33 33 32 32 33 33 33 33 32 32 32 32 32 32 33 33 33 33 33 33 33 33 34 34 34 34 35 35 35 36 36 37 37 38 38 38 39 39 39 39 39 39 39 39 39 38 38 38 38 38 39 39 39 38 38 37 37 37 37 36 36
28 28 28 29 29 29 29 30 30 30 30 30 30 30 30 31 31 31 32 32 32 32 33 33 34 34 34 34 34 34 34 34 34 34 34 34 34 34 34 34 34 34 34 34 34 34 35 35 35 36 36 36 37 37 37 37 38 38 39 39 40 40 40 40 41 41 41 41 41 41 41 40 40 40 40 40 41 41 40 40 39 39 38 38 37
29 30 30 30 30 30 30 31 31 31 31 31 31 31 31 31 32 32 32 33 33 33 33 34 34 35 35 35 35 35 36 36 36 36 36 36 36 36 36 36 36 36 36 36 36 36 36 37 37 37 38 38 38 39 39 39 39 40 40 40 41 41 41 42 42 42 42 43 43 43 43 43 43 42 42 42 42 41 41 41 41 40 40 39 39
31 31 31 31 32 32 32 32 32 32 32 32 32 32 32 32 33 33 33 34 34 34 34 35 35 35 36 36 36 37 37 37 37 37 37 37 37 37 37 37 37 38 38 38 38 38 38 38 38 39 39 39 40 40 41 41 41 42 42 42 42 42 43 43 43 43 43 43 44 44 44 44 44 44 44 44 43 43 42 42 42 42 41 41 40
32 32 32 33 33 33 33 33 33 33 34 34 34 34 34 34 34 34 35 35 35 35 36 36 36 36 37 37 37 37 38 38 38 38 38 38 38 38 38 38 39 39 39 39 39 40 40 40 40 40 41 41 41 42 42 42 43 43 44 44 44 44 44 44 44 45 45 45 45 45 45 44 44 45 45 45 45 45 44 44 43 43 42 42 42
31 32 32 33 33 33 33 33 34 34 34 35 35 35 35 35 36 35 36 36 36 36 36 37 37 37 37 38 38 38 39 39 39 39 39 39 39 39 39 39 40 40 40 40 41 41 41 41 42 42 43 43 43 44 44 44 44 44 45 45 45 46 46 46 46 46 46 46 46 47 46 46 46 46 46 46 46 46 46 46 45 44 44 43 43
31 31 32 32 32 32 33 33 33 34 34 34 35 35 35 35 35 35 35 36 36 36 36 37 37 37 38 38 39 39 39 40 40 40 40 40 40 40 40 41 41 41 41 41 42 42 42 43 43 44 44 45 45 45 46 46 46 46 46 46 46 47 47 47 47 47 48 48 48 48 48 48 48 48 48 47 47 47 47 47 47 46 46 45 45
31 31 31 32 32 32 32 33 33 33 34 34 34 34 34 34 34 34 34 35 35 35 36 36 37 37 38 39 39 39 39 40 40 41 41 41 41 42 42 42 42 42 43 43 43 43 44 44 45 45 46 46 47 47 47 48 48 48 47 48 48 48 48 48 48 49 49 49 49 49 49 49 49 49 49 49 49 48 48 48 48 48 48 47 47
31 31 31 32 32 32 33 33 33 34 34 34 33 33 33 33 33 34 34 35 35 36 36 36 37 37 37 38 39 39 40 40 41 41 41 42 42 42 43 43 43 43 44 44 45 45 46 46 47 47 47 48 48 49 49 49 49 50 50 50 50 50 50 50 50 50 50 50 50 50 50 50 50 50 50 50 50 50 50 50 50 49 49 49 49
31 32 32 32 32 33 33 33 33 34 33 33 33 33 33 33 33 34 35 35 36 36 36 36 37 37 37 38 39 39 39 40 40 41 41 42 42 43 43 43 44 44 45 45 46 47 47 48 48 49 49 50 50 51 51 51 51 51 52 52 52 52 52 52 52 52 52 52 52 52 52 52 51 51 51 51 51 51 51 51 51 50 50 50 50
32 32 32 32 32 32 32 32 32 32 32 32 33 33 33 34 34 34 35 35 35 35 36 36 37 37 38 38 38 39 39 40 40 41 41 42 43 43 44 44 44 45 45 46 47 48 48 49 50 50 51 51 52 52 53 53 53 53 53 54 54 54 54 55 55 55 55 55 54 54 54 53 53 53 53 52 52 52 52 52 52 52 51 51 51
33 33 32 32 32 31 31 31 31 31 32 32 33 34 34 34 35 35 35 35 35 36 36 36 37 37 38 38 38 39 39 39 40 40 41 42 42 43 43 44 45 45 46 47 48 49 50 50 51 51 52 53 53 54 54 54 55 55 55 55 56 56 56 57 57 57 57 57 57 56 56 56 56 55 55 55 54 54 54 53 53 53 52 52 52
33 33 32 32 31 31 31 31 31 32 32 33 34 34 35 35 35 35 35 35 35 35 35 35 36 36 37 37 37 38 38 38 39 40 41 41 42 43 43 44 45 46 47 47 48 49 50 51 51 52 53 53 54 55 55 56 56 56 57 57 57 58 58 58 59 59 59 59 59 59 59 58 58 57 57 56 56 55 55 55 54 54 54 53 53
32 32 32 32 32 31 32 32 32 33 33 34 34 35 35 35 35 35 34 35 35 35 35 36 36 36 36 37 37 37 37 38 39 40 40 41 41 42 43 44 44 45 46 47 48 49 49 50 51 52 52 53 54 55 56 56 57 57 58 58 58 59 59 60 60 61 61 61 61 60 60 60 59 58 58 58 57 57 57 57 56 56 55 55 54
32 32 32 32 32 32 32 32 32 33 33 33 34 34 34 34 34 34 34 35 35 35 36 36 36 36 37 37 37 38 38 38 39 39 39 40 40 41 42 43 44 44 45 46 47 48 48 49 50 51 52 53 54 55 56 56 57 57 58 58 59 60 60 61 61 61 62 62 62 62 61 60 60 60 60 59 59 59 58 58 58 57 57 56 56
30 31 31 31 31 32 32 32 32 32 32 33 33 33 33 33 33 34 34 35 35 35 35 36 36 36 36 37 37 37 37 37 38 38 38 38 39 40 41 41 42 43 45 45 46 47 48 49 50 51 52 53 54 54 55 56 56 57 58 58 59 59 60 60 61 61 62 62 62 62 62 61 61 61 61 60 60 60 59 59 58 58 58 58 57
29 29 29 30 30 30 31 31 31 31 31 32 32 32 33 33 33 33 34 34 34 34 34 35 35 35 35 35 36 36 36 36 37 37 37 38 38 39 39 40 41 43 43 44 45 46 47 48 49 50 51 52 53 54 55 55 56 56 57 57 58 59 59 60 60 61 61 62 62 62 62 62 62 62 61 61 60 60 60 59 59 59 59 59 58
Wind_Direction
212 212 213 213 213 214 214 215 215 216 216 216 216 217 218 218 216 216 216 216 216 216 217 217 217 218 218 218 218 218 220 222 224 226 229 231 233 234 236 237 239 241 243 246 248 250 253 254 255 256 256 257 259 262 265 267 269 270 271 273 273 273 273 275 276 281 285 286 288 290 289 288 288 289 291 294 298 301 304 306 308 309 311 313 316
215 216 216 216 216 216 217 217 218 219 220 220 221 221 222 222 221 220 220 221 220 221 221 221 222 222 222 222 222 223 225 227 229 231 233 236 237 238 240 241 244 244 245 248 250 253 256 259 260 260 260 261 261 263 266 268 269 270 272 272 273 273 273 275 277 280 285 289 290 292 293 292 292 292 293 295 298 300 302 305 307 309 311 312 314
218 218 219 219 219 219 219 219 220 221 222 223 224 224 225 225 225 224 224 224 225 225 226 226 226 226 226 226 227 228 230 232 233 234 236 238 241 243 244 245 246 247 248 250 252 255 258 261 263 264 264 264 264 265 267 269 270 271 273 273 274 275 275 276 277 279 284 288 291 292 294 295 295 295 296 297 298 300 302 305 307 309 311 312 313
221 221 222 223 223 222 222 222 222 223 224 225 225 226 226 227 227 227 228 229 229 229 230 230 230 230 230 231 231 232 234 235 236 237 238 240 242 244 246 247 248 249 251 254 255 257 259 261 264 266 267 268 267 268 268 270 271 272 274 275 276 276 277 278 280 282 284 287 290 292 294 296 297 298 299 300 301 302 304 306 308 309 311 312 313
225 225 225 226 226 226 225 225 225 226 227 227 228 228 229 229 230 230 231 232 232 232 233 233 233 234 234 234 235 236 237 238 239 239 241 243 244 245 247 248 250 251 252 255 257 259 260 262 265 267 268 270 271 272 273 273 274 274 275 277 277 278 279 280 283 284 286 288 292 294 296 298 299 301 302 304 305 306 307 308 309 310 311 312 314
228 228 228 228 228 229 229 228 228 228 229 230 230 231 231 232 232 233 233 235 235 236 236 235 236 236 236 237 237 238 239 240 241 242 244 245 246 247 248 249 251 252 253 255 256 258 259 262 265 266 267 269 271 273 275 276 277 277 277 278 279 279 280 281 283 285 287 289 292 295 297 299 301 302 304 305 306 307 308 310 310 312 314 316 317
231 231 231 231 231 231 232 231 231 231 231 232 233 233 233 234 235 235 236 236 237 238 238 238 238 238 238 239 240 240 241 242 243 244 246 247 248 248 249 250 252 253 254 255 256 257 258 260 263 264 265 266 268 270 272 274 276 277 278 279 280 280 280 281 282 284 286 289 290 292 295 297 299 300 302 304 304 304 307 308 309 311 315 317 318
232 232 232 233 234 234 234 233 233 232 232 233 234 235 235 236 236 237 237 238 238 239 240 240 240 240 240 241 242 242 243 243 244 245 247 248 249 249 250 251 253 254 255 255 255 256 258 260 261 263 265 266 267 269 270 272 274 275 276 277 278 278 279 281 283 285 286 288 289 291 292 294 296 298 300 302 303 304 305 306 306 308 312 314 316
235 234 233 235 237 239 238 235 234 234 235 235 235 236 237 238 238 238 239 239 239 239 240 241 242 242 242 243 243 244 244 245 245 246 247 249 250 250 251 252 253 254 255 256 256 257 258 259 261 263 264 266 267 268 270 271 273 274 275 276 276 276 277 279 280 283 285 286 287 289 290 292 294 297 299 301 302 303 304 303 303 306 308 310 312
237 236 235 236 239 242 242 239 237 238 238 237 238 238 238 239 239 239 239 239 240 240 240 241 242 243 244 245 245 245 246 246 246 247 248 249 250 251 252 253 253 254 256 257 258 259 259 261 262 263 265 266 267 268 269 271 272 273 275 276 276 277 278 278 279 281 282 284 286 288 289 290 292 295 296 298 300 301 301 302 303 305 307 308 309
236 237 237 239 240 243 244 242 240 240 240 239 240 239 239 240 241 240 239 239 240 240 241 241 242 243 245 246 247 247 247 247 248 248 249 250 251 251 252 253 254 255 256 258 259 261 262 263 265 266 267 268 269 269 270 271 272 273 274 275 276 277 278 279 280 281 281 282 284 287 288 288 291 293 294 296 297 298 299 301 302 304 306 307 308
233 235 238 240 239 241 243 242 241 241 240 240 240 240 239 240 241 241 240 239 239 240 241 242 243 243 244 245 247 248 248 249 250 251 252 252 252 253 253 254 255 256 257 258 260 262 263 265 266 268 268 269 270 271 271 271 272 273 274 275 276 276 277 278 280 281 281 281 282 284 285 287 289 291 292 294 295 296 298 299 300 301 302 303 304
229 231 235 238 237 238 241 241 240 241 241 240 239 238 238 239 240 241 240 240 239 240 241 242 243 245 245 246 247 248 249 251 252 253 254 254 254 254 255 255 256 257 258 259 261 262 264 265 267 268 269 269 270 271 272 272 273 274 275 275 276 276 276 277 278 279 281 281 281 282 284 285 286 289 291 293 293 295 296 296 297 298 299 300 301
225 229 234 239 240 239 240 240 240 241 240 239 238 235 236 238 240 240 241 241 241 241 242 242 243 245 246 247 248 249 250 252 254 254 254 254 254 254 255 256 256 257 258 259 261 263 264 266 267 268 269 269 270 271 272 273 274 275 276 276 277 277 277 277 277 278 279 280 281 282 283 284 285 287 290 291 292 293 294 294 295 295 296 297 298
225 230 237 241 243 244 243 241 239 238 238 238 235 232 233 237 239 240 242 243 244 244 243 243 243 245 247 248 249 249 250 251 253 254 254 253 253 253 254 255 256 257 258 259 260 262 263 265 266 268 269 269 270 270 271 272 274 275 276 276 277 277 277 277 278 278 279 280 280 281 283 284 285 287 289 290 291 292 293 293 294 294 294 294 296
227 231 236 239 240 244 246 243 239 238 239 239 236 233 234 237 240 243 244 244 245 245 244 244 245 246 248 249 249 249 250 251 252 254 256 254 253 252 253 254 255 257 258 259 260 261 263 264 265 266 267 268 268 268 269 271 272 273 274 275 276 277 277 277 277 278 278 278 279 279 281 282 283 285 287 288 290 291 292 293 293 293 293 293 294
230 232 236 239 240 242 244 244 241 239 240 242 241 239 240 241 243 245 245 245 246 246 245 245 246 248 249 249 249 250 250 250 250 252 254 254 253 253 253 254 255 257 258 259 260 261 262 263 264 265 267 267 268 268 269 270 272 273 274 275 276 277 278 278 278 278 278 278 278 278 279 280 281 283 284 286 287 290 290 291 292 292 292 292 293
233 234 236 238 240 240 241 242 242 240 242 246 247 246 245 244 246 247 247 247 248 248 246 246 248 249 249 249 249 247 247 249 250 251 252 253 253 253 253 254 255 257 258 258 259 260 261 263 264 265 266 267 267 268 269 270 271 272 274 275 276 277 278 279 280 280 280 279 279 278 278 279 280 281 282 283 284 286 287 288 289 290 289 289 291
235 234 234 235 236 237 238 241 243 243 245 246 247 247 246 245 246 248 248 249 250 251 250 250 250 250 250 250 249 248 248 250 252 253 253 254 254 253 254 255 256 257 258 259 259 260 261 262 264 264 265 266 267 268 269 269 270 271 273 275 276 277 278 280 281 281 281 280 280 279 279 279 280 280 281 281 282 282 283 285 287 287 287 287 288
236 235 235 234 235 236 237 239 242 243 244 244 244 244 244 244 245 247 249 251 252 253 253 252 252 252 252 252 254 254 254 254 254 255 256 256 256 256 255 255 256 257 258 259 260 261 262 263 264 265 265 266 266 267 268 268 269 270 272 274 275 277 278 279 280 280 280 280 280 280 280 280 280 280 280 280 281 281 282 284 285 286 286 286 287
238 237 238 238 239 240 240 241 243 243 244 244 244 244 244 244 246 247 249 251 252 252 253 253 252 254 255 256 257 259 260 258 257 257 257 258 259 259 258 258 258 258 259 260 261 261 262 263 264 265 266 266 267 267 268 268 269 270 271 272 274 276 277 277 278 279 279 279 280 280 280 280 280 280 280 280 281 282 282 283 284 285 285 285 286
241 241 242 243 244 245 246 247 248 248 248 248 247 246 246 246 247 249 250 251 252 252 254 255 254 256 258 259 260 262 263 263 262 261 261 261 262 261 260 260 260 260 260 261 262 263 264 264 265 265 267 268 268 269 269 269 269 270 271 272 273 274 275 275 276 277 278 279 279 279 279 280 280 280 280 281 281 282 283 283 283 283 284 284 285
244 245 246 248 248 249 250 250 251 251 252 252 251 251 250 250 250 252 252 252 253 254 256 257 257 258 260 261 263 265 266 267 268 268 267 266 265 264 263 263 262 262 262 263 264 265 265 266 267 267 268 269 269 269 269 269 270 270 271 272 273 274 275 275 276 277 277 278 278 278 279 279 279 280 280 281 282 283 283 283 283 283 283 284 284
247 248 250 251 252 252 253 253 253 253 253 253 253 253 253 253 253 253 254 255 255 255 257 258 259 260 261 263 265 267 268 269 270 271 271 270 270 269 267 266 265 264 264 265 266 267 266 267 267 268 269 269 268 269 269 269 270 271 272 272 273 274 275 276 276 277 277 277 277 277 278 279 279 280 281 282 283 283 283 283 283 283 283 284 284
249 250 252 254 254 255 255 255 255 255 255 255 255 255 255 255 255 256 256 256 256 257 258 260 260 262 263 264 266 267 268 269 269 271 272 273 272 272 271 270 268 267 267 267 269 270 270 269 269 269 269 269 268 268 268 269 270 271 272 273 273 274 274 275 275 276 276 276 276 277 278 279 280 281 282 283 283 283 284 283 283 283 283 284 284
252 252 253 255 256 256 256 256 257 257 257 257 257 257 257 257 258 259 259 259 259 259 260 261 262 263 264 265 267 267 268 268 269 269 271 272 272 272 272 271 271 270 269 269 270 271 271 271 270 270 270 270 270 269 269 270 271 272 273 274 274 275 275 275 275 275 275 276 276 277 278 279 280 281 282 282 283 283 283 283 284 284 284 285 285
254 254 255 256 256 257 257 258 258 258 258 258 258 258 259 259 259 260 261 261 262 262 263 263 264 264 264 265 266 267 268 269 269 269 270 270 270 270 271 271 272 272 271 271 272 272 272 272 271 271 271 272 272 272 272 272 273 273 274 275 275 276 276 275 275 275 276 276 277 278 279 280 281 281 282 282 283 283 283 283 283 283 284 285 285
254 255 256 257 257 258 258 258 258 258 258 258 258 258 259 259 260 261 261 262 263 264 265 266 265 265 266 266 266 267 268 269 270 270 270 270 270 270 270 270 271 272 272 272 272 272 272 273 273 274 274 274 274 274 274 275 275 274 275 275 276 276 277 277 276 275 275 276 277 278 279 280 280 281 282 283 283 284 283 283 283 283 283 284 285
254 255 256 257 258 258 259 259 258 258 258 258 258 258 259 260 261 262 262 262 263 264 265 265 266 266 267 267 267 267 268 269 270 271 271 271 271 271 271 270 270 271 272 272 272 272 273 273 274 275 275 276 276 277 277 277 276 276 277 278 278 278 278 278 277 277 277 277 277 278 278 279 280 281 281 282 282 284 284 283 283 283 283 283 284
254 255 256 257 258 259 259 258 258 258 258 258 258 259 259 261 262 263 263 263 264 264 264 264 265 266 267 267 268 268 268 269 270 270 270 270 271 271 271 271 270 271 271 271 271 272 273 273 274 274 275 276 276 277 278 278 277 277 278 278 278 278 278 278 278 278 278 278 278 278 279 279 280 280 281 281 282 283 283 283 283 283 283 283 283
254 255 256 257 258 258 259 259 258 258 258 258 259 259 260 261 262 263 263 263 264 264 264 263 264 265 266 266 267 268 269 269 270 270 270 270 270 271 271 271 271 272 272 271 271 272 272 273 273 274 274 275 275 276 277 277 277 277 278 277 277 276 276 277 278 279 279 279 279 279 280 280 280 280 281 281 281 282 283 282 282 282 281 281 282
255 256 256 257 258 258 259 259 259 259 259 259 259 260 261 261 262 262 263 263 264 264 264 264 264 264 265 265 266 266 268 270 271 271 272 272 272 272 271 272 273 273 273 272 272 272 273 273 273 274 274 274 275 275 275 276 276 276 277 277 276 276 276 276 277 278 278 278 279 279 279 279 280 280 281 281 281 282 282 282 282 281 281 281 281
256 256 257 257 258 258 259 259 260 260 260 260 261 261 262 262 263 263 263 264 264 264 264 265 265 265 265 266 266 267 268 269 270 271 272 272 273 273 273 273 273 274 274 273 273 273 273 273 273 274 274 274 275 275 274 274 275 275 276 276 276 276 276 276 277 277 277 278 278 278 278 278 279 280 281 281 281 281 281 281 282 281 281 281 280
255 255 256 256 257 258 258 259 260 260 261 261 262 262 262 263 263 264 264 264 264 264 264 265 266 266 266 266 266 268 269 269 269 270 270 271 272 272 273 273 274 274 274 274 274 274 274 274 274 274 274 275 275 275 275 275 274 274 275 275 275 275 275 276 276 276 276 277 277 277 277 278 278 279 279 279 280 280 281 282 282 282 281 280 280
256 256 256 256 256 257 258 259 259 260 261 261 262 262 263 263 264 264 264 264 265 265 265 266 266 267 267 267 267 268 269 270 271 270 271 271 271 272 272 272 273 274 274 275 275 275 275 276 276 276 276 276 276 276 276 275 275 275 275 274 274 274 275 275 275 276 276 276 276 276 277 277 277 278 278 278 278 279 280 280 281 281 280 280 280
258 257 257 257 257 257 258 258 259 260 261 261 261 262 263 263 263 264 264 264 264 265 265 266 266 267 267 267 268 268 270 271 271 271 271 271 272 272 272 272 273 273 274 275 275 275 276 276 276 277 277 277 278 277 277 277 276 276 276 275 275 275 275 275 275 275 275 275 276 276 276 277 277 277 278 278 278 278 278 278 278 279 279 280 279
259 259 259 259 259 259 259 259 260 260 261 261 262 263 263 263 263 264 264 264 264 264 265 266 267 267 268 268 268 269 270 271 271 271 270 271 271 272 272 273 273 273 274 274 274 275 276 276 276 277 278 278 279 279 278 278 278 277 277 276 276 276 275 275 275 275 275 275 275 275 276 276 277 277 277 277 277 278 278 278 278 278 278 279 279
260 260 260 260 260 261 261 261 261 261 262 262 262 263 263 263 264 264 264 264 264 265 265 266 267 268 268 269 269 270 270 271 271 271 270 271 271 271 272 272 273 273 274 274 275 275 275 276 276 277 278 278 278 279 279 279 278 278 277 277 276 276 276 276 276 276 276 275 275 275 275 275 276 276 276 277 277 277 277 277 277 277 277 277 277
260 260 260 260 261 261 262 262 262 262 263 263 263 264 264 264 265 265 265 265 265 266 266 267 267 268 268 269 270 271 271 272 272 271 271 271 271 272 272 272 273 273 274 274 275 275 275 276 276 277 277 278 278 278 278 278 278 278 278 277 277 277 277 277 277 277 277 276 276 276 276 275 275 275 275 275 276 276 276 276 277 276 276 276 275
260 260 260 260 261 261 262 262 262 263 264 264 264 264 264 265 265 265 265 266 266 266 267 267 267 268 268 269 270 271 272 272 272 272 272 272 272 272 272 272 273 273 273 274 274 275 275 276 277 277 278 278 278 279 278 278 278 278 277 277 277 277 277 277 277 277 277 277 276 276 276 276 276 275 275 275 275 275 275 275 275 275 275 275 274
260 260 261 261 261 262 262 262 263 264 264 264 265 265 265 265 265 265 266 266 266 267 267 267 267 268 268 269 270 270 271 272 272 272 272 272 272 272 272 272 272 272 273 273 274 274 275 276 277 277 278 279 279 279 279 279 279 278 277 276 276 276 276 276 276 276 276 276 276 276 276 276 276 275 275 275 275 274 274 274 274 274 274 274 274
261 261 261 262 262 262 262 263 263 264 264 265 265 265 264 264 265 266 266 266 267 267 267 268 268 268 269 269 270 270 270 271 271 272 272 272 272 272 272 272 272 272 272 273 273 274 275 276 276 277 278 278 279 279 279 279 279 278 277 277 276 276 276 276 276 276 276 276 276 276 276 275 275 275 275 275 274 274 273 273 274 274 274 273 273
261 262 262 263 263 263 263 263 264 264 264 264 264 264 264 265 265 266 266 267 267 268 268 268 269 269 269 269 270 270 271 271 272 272 272 272 272 273 273 273 273 273 274 274 274 275 275 276 276 277 277 278 278 278 278 278 278 278 277 277 276 276 276 276 276 276 276 276 275 275 275 275 275 274 274 274 274 273 273 273 273 273 273 273 272
262 263 263 264 264 264 264 263 263 264 264 264 264 264 264 265 266 267 267 267 268 268 268 269 269 270 270 270 271 271 271 272 272 272 273 273 273 273 273 274 274 275 275 276 276 276 277 277 277 277 277 278 278 278 277 277 277 277 277 276 276 276 276 276 275 276 275 275 275 275 275 274 274 274 273 273 273 273 273 272 272 272 272 272 272
263 263 264 264 265 264 264 264 264 264 264 264 264 265 265 266 267 267 268 268 269 269 269 269 270 271 271 271 271 272 272 272 272 272 273 273 273 274 274 275 275 276 276 277 278 278 278 278 278 278 278 278 278 278 278 278 277 277 276 276 276 276 276 275 275 275 275 275 275 275 274 274 274 273 273 273 272 272 272 271 271 271 271 271 271
263 263 263 264 264 264 264 264 264 264 264 265 265 266 266 267 267 268 268 269 269 270 269 270 271 271 271 272 272 272 272 272 273 273 273 274 274 274 275 276 276 277 277 278 279 279 279 280 280 280 279 279 279 279 278 278 278 277 277 276 276 276 276 276 276 275 275 275 274 274 274 274 274 273 273 273 272 272 271 271 270 270 270 269 269
263 263 263 262 263 263 264 264 265 265 265 266 266 267 267 268 268 269 269 269 270 270 270 271 272 272 272 272 273 273 273 273 273 274 274 275 275 275 276 277 277 278 278 279 280 280 281 281 281 281 281 280 280 280 279 279 278 278 277 277 276 276 276 276 276 275 275 275 274 274 274 273 273 273 273 272 272 271 271 270 270 269 269 268 268
263 263 263 263 263 264 265 266 266 267 267 267 267 268 268 268 268 268 268 269 270 270 271 272 272 273 273 273 273 273 273 273 274 275 275 276 276 277 277 278 279 279 280 280 281 282 282 282 282 282 282 282 281 281 280 280 279 279 278 278 277 277 276 276 276 275 275 275 274 274 273 273 272 272 272 271 271 271 271 270 270 269 269 268 268
263 263 264 264 264 265 266 267 267 268 268 268 268 268 268 268 268 268 268 269 270 271 272 272 273 273 273 273 273 273 273 274 275 276 277 277 278 279 280 280 281 281 282 282 283 283 283 283 283 283 283 283 282 282 281 281 280 280 279 278 278 277 277 277 276 275 275 275 274 273 273 272 272 271 271 271 270 270 270 270 270 269 269 268 267
263 263 264 264 264 265 266 267 267 268 268 268 268 268 268 268 269 270 270 271 271 271 272 273 273 273 273 273 273 274 274 275 276 277 277 278 279 280 281 282 282 283 284 284 284 284 285 285 285 284 284 284 283 283 282 281 281 280 279 279 278 278 277 277 276 275 275 274 274 273 273 272 272 271 271 270 270 270 269 269 269 269 268 268 267
263 264 264 265 266 266 267 267 268 268 269 269 269 269 269 269 270 271 271 272 272 272 272 273 273 274 274 274 274 274 275 276 277 277 278 279 280 281 281 282 283 284 285 285 286 286 286 286 286 286 285 285 284 283 283 282 281 280 280 279 278 278 277 277 276 276 275 274 273 273 272 272 271 271 270 270 270 269 269 269 268 268 268 267 267